Theta_e
325 327 329 330 326 325 326 326 325 326 324 323 353 364 360 352 358 354 355 353 352 350 344 342 342 344 347 347 348 346 345 346 347 347 347 351 350 351 351 350 349 352 351 352
329 329 328 327 327 326 326 326 324 323 324 322 360 365 361 356 359 349 348 354 352 349 347 343 342 344 347 346 346 347 345 343 346 345 345 350 349 351 349 351 352 353 351 351
329 329 329 330 328 328 325 323 323 323 323 347 358 363 364 359 356 355 351 353 351 349 348 344 343 343 347 346 346 346 346 345 343 345 344 349 352 350 349 351 353 353 354 350
325 325 324 329 328 327 324 323 323 324 321 321 337 339 353 355 351 351 356 353 351 349 347 346 343 342 346 346 346 347 347 346 345 344 343 349 351 348 350 349 353 354 354 351
320 324 324 325 325 325 326 324 323 323 322 318 320 324 342 348 351 349 349 351 350 349 349 347 344 343 344 346 346 347 347 347 346 344 343 348 349 349 348 351 352 351 354 351
318 320 321 321 323 324 323 322 320 318 317 320 318 319 334 352 350 348 345 350 350 350 349 347 346 343 344 344 347 348 348 348 347 345 343 344 347 349 350 352 353 353 352 352
315 316 316 318 320 320 322 319 322 323 320 321 317 318 318 347 347 347 346 347 347 348 349 348 347 343 343 344 346 350 348 348 348 347 345 342 346 347 350 352 352 351 353 353
315 315 314 315 315 320 321 319 322 326 324 322 319 322 321 324 344 344 346 347 340 344 347 348 348 345 342 345 344 350 350 348 347 349 348 344 345 346 348 351 350 349 351 352
313 315 315 316 315 316 319 321 318 320 321 322 322 323 324 337 335 343 344 348 347 350 349 348 348 346 345 345 345 345 350 348 347 346 346 346 344 345 345 351 352 349 350 350
313 314 313 315 314 314 313 314 322 318 325 327 325 324 325 338 341 343 346 348 351 347 350 350 348 347 346 345 346 345 347 349 348 347 345 344 344 344 345 346 352 354 350 350
311 311 313 314 313 315 314 315 314 319 319 323 325 325 335 337 342 342 343 344 348 347 351 350 349 348 347 347 347 347 346 348 349 348 346 344 344 345 345 345 346 352 353 351
309 309 313 315 313 314 314 313 313 318 323 322 321 327 331 338 339 340 345 345 345 349 350 351 351 349 346 346 347 348 349 347 349 349 348 346 344 344 346 346 344 344 352 351
309 308 310 311 311 310 312 313 312 312 312 320 326 326 335 337 339 338 341 347 347 346 344 343 345 348 346 345 345 347 350 349 348 349 349 348 345 342 345 347 347 344 346 352
309 304 308 310 310 309 313 314 314 313 313 315 316 317 337 338 339 338 337 337 338 339 340 339 341 344 341 343 344 344 347 351 350 349 349 349 348 344 341 345 345 347 347 346
307 309 311 313 312 313 313 313 314 314 314 315 315 316 337 336 335 335 336 335 336 335 335 336 337 345 343 346 347 347 346 346 351 350 350 349 350 348 344 341 346 344 346 345
309 311 312 311 312 311 311 311 314 314 317 322 320 325 329 333 331 332 333 335 335 333 332 333 334 335 338 341 347 348 351 348 352 352 351 350 350 350 349 344 342 344 343 346
309 310 309 313 311 309 308 312 317 318 324 326 331 327 321 333 329 328 328 330 333 332 330 330 331 332 334 336 342 346 342 346 352 354 353 353 350 351 350 350 347 344 344 341
306 309 310 310 309 311 306 311 318 322 321 320 320 320 320 323 323 320 321 324 326 330 328 327 327 330 333 333 332 340 346 343 343 345 350 354 355 352 351 351 351 349 348 346
308 308 310 311 310 310 312 317 319 316 320 318 317 318 317 317 321 319 319 321 321 324 325 324 325 327 330 330 328 331 339 342 341 344 343 350 354 355 354 353 352 352 352 351
307 309 312 309 312 315 315 314 315 315 318 316 317 317 316 316 319 317 316 318 320 321 323 322 323 324 327 329 325 325 329 332 333 339 337 346 348 356 355 355 354 354 354 355
307 308 309 310 312 315 311 312 313 317 317 313 314 313 312 313 314 311 314 314 316 319 322 322 321 322 324 327 326 322 323 325 328 332 337 342 340 348 357 356 355 355 356 355
309 307 304 307 314 315 308 311 314 312 311 311 311 310 310 310 311 311 311 313 315 316 320 320 321 321 322 325 326 323 321 322 326 328 332 341 339 347 358 357 357 356 356 357
311 308 305 307 307 307 306 307 305 304 305 306 306 307 307 308 309 309 310 311 312 314 318 319 320 320 322 324 325 322 319 320 324 327 331 335 344 350 358 358 358 358 357 358
311 307 304 306 306 306 305 304 304 304 303 304 304 305 306 307 307 307 308 309 311 313 316 319 319 320 321 324 324 321 317 319 322 325 329 332 337 357 360 358 359 360 359 359
306 305 305 304 304 304 305 303 303 305 303 303 303 304 304 304 304 305 306 307 308 310 314 318 319 318 321 323 321 319 316 318 320 323 327 328 332 343 359 359 360 360 361 360
304 303 302 303 303 302 301 302 303 304 303 303 302 303 302 302 302 304 305 305 306 308 312 317 318 319 321 321 318 317 315 317 319 322 324 327 328 334 341 357 361 361 362 361
Wind_Speed
4 4 3 7 5 6 4 4 8 14 10 6 16 14 23 18 10 11 12 18 19 13 15 30 34 33 37 41 40 37 32 28 27 22 18 14 22 20 19 14 15 13 14 13
3 2 8 7 6 7 6 7 12 11 5 2 9 13 15 16 14 13 15 13 18 21 16 26 32 29 36 39 41 38 32 29 29 24 23 18 22 22 20 16 15 13 14 13
6 9 8 6 6 6 6 6 11 10 6 8 12 8 12 11 10 11 14 18 17 20 18 22 28 31 36 37 39 41 38 32 30 27 25 19 17 19 18 20 19 17 16 13
6 14 10 9 8 6 7 7 10 6 3 1 4 3 8 14 13 13 19 18 14 14 13 17 28 31 34 39 43 42 41 37 31 28 29 25 20 18 20 24 23 21 19 15
7 4 6 6 10 7 11 10 7 2 3 5 3 5 4 14 12 14 23 21 19 22 18 15 25 36 37 36 40 43 42 40 36 31 32 30 23 20 18 24 25 23 22 16
6 4 5 5 5 5 7 4 7 5 3 4 7 4 2 13 26 20 20 18 20 19 19 15 22 35 36 37 36 40 42 43 40 36 32 34 29 21 18 28 29 26 22 20
6 5 6 7 5 6 3 6 3 4 4 5 2 4 8 19 18 25 24 19 23 20 20 16 14 28 33 36 36 38 42 39 43 40 36 35 33 26 22 30 30 26 24 22
4 6 8 6 1 3 3 7 5 5 3 4 6 4 5 11 16 22 23 22 21 14 17 20 20 28 35 38 38 37 38 38 43 44 40 35 36 31 27 25 29 29 28 27
4 4 4 6 7 2 8 2 7 6 1 4 3 8 9 17 15 10 23 20 24 17 16 22 24 30 33 37 40 40 38 37 42 46 45 40 37 36 34 22 23 30 32 30
6 3 4 8 7 8 7 6 3 3 5 3 4 5 3 16 20 21 12 22 24 16 15 17 17 25 27 34 39 41 44 43 44 42 44 45 41 38 36 32 22 28 33 29
4 4 8 4 6 4 7 8 6 1 4 6 2 3 6 12 16 20 20 21 20 19 19 21 15 23 30 30 32 34 33 37 39 43 43 42 45 42 38 36 32 25 30 30
4 4 2 5 5 3 6 8 6 4 7 3 3 1 4 12 21 24 20 4 7 13 14 17 16 14 19 27 35 39 35 34 35 41 39 41 44 47 42 39 38 33 25 29
5 4 4 9 7 8 5 12 7 4 2 2 2 3 7 15 21 23 27 22 17 16 13 13 9 2 7 15 20 24 32 38 35 32 36 36 40 42 43 42 38 35 33 26
7 4 5 4 6 5 9 14 10 3 2 7 3 12 9 13 17 19 20 21 20 19 16 15 11 8 9 3 3 11 7 30 38 33 34 34 38 41 43 44 44 39 37 35
5 3 2 0 6 5 10 12 10 6 6 1 9 14 6 7 12 14 15 15 17 16 17 16 18 10 13 9 12 15 12 10 33 39 37 38 38 40 41 41 42 46 41 39
4 1 2 4 4 8 8 8 6 6 8 8 7 2 7 3 9 16 15 15 15 15 16 15 14 17 22 25 5 2 7 21 30 35 38 39 35 36 37 39 41 45 46 44
3 4 3 3 4 8 5 7 10 5 10 5 6 7 13 6 11 12 12 14 14 12 12 11 11 16 22 22 22 14 8 7 14 24 29 31 35 34 37 38 40 39 42 43
3 4 3 3 4 2 6 6 7 14 13 11 9 13 13 8 3 11 13 11 10 6 6 10 18 23 19 23 29 21 9 2 5 4 7 17 30 36 35 35 37 38 37 39
4 4 2 4 3 5 3 7 6 6 4 13 11 11 11 14 5 6 14 12 10 8 9 9 12 16 22 26 29 22 13 4 9 11 14 19 22 34 35 35 37 38 34 34
7 5 4 3 4 5 1 10 10 4 3 9 14 12 14 10 4 3 9 12 12 14 7 13 15 15 16 17 26 26 25 23 14 17 25 20 21 35 38 40 38 38 35 35
4 3 2 2 3 1 4 11 9 2 3 12 8 8 10 5 4 7 9 10 15 15 11 15 16 20 20 18 24 24 20 16 23 21 23 20 31 35 42 40 38 36 36 33
2 2 2 2 2 5 5 2 1 4 5 6 7 11 13 13 14 13 13 10 12 16 17 15 15 20 24 22 21 19 23 23 23 23 18 11 38 32 39 37 35 36 33 32
2 5 4 6 4 3 0 3 1 3 8 6 8 10 12 13 14 13 12 13 14 14 16 18 15 19 21 22 16 21 24 27 24 20 19 15 23 27 35 35 34 32 33 31
1 2 2 2 3 6 6 4 2 3 7 13 10 11 13 14 11 14 14 12 14 17 13 15 16 12 20 18 16 18 22 25 26 21 21 22 20 11 27 33 33 32 31 30
4 5 5 5 6 2 6 5 6 6 6 11 14 14 14 15 14 12 13 17 16 18 17 15 17 17 15 12 19 19 22 23 26 23 22 26 24 13 11 30 33 35 36 37
5 6 5 5 6 5 6 5 6 6 6 11 13 15 18 18 18 17 13 22 27 18 20 18 18 19 6 11 19 21 22 22 24 21 22 22 24 21 13 10 28 32 31 35
Wind_Direction
202 88 223 228 181 204 250 291 279 286 276 223 192 160 182 185 206 178 167 180 183 198 177 178 181 165 166 169 173 179 183 184 185 188 184 168 172 177 176 174 169 159 160 161
352 231 234 225 222 243 266 256 279 285 265 177 166 172 166 187 197 188 189 195 195 184 165 178 179 165 168 172 178 181 182 183 193 194 194 185 181 190 186 182 182 174 166 173
163 237 234 235 260 247 249 226 263 249 328 47 101 127 176 202 212 202 215 207 202 187 171 169 182 175 173 175 180 183 186 187 196 199 197 194 194 203 194 186 187 186 184 168
200 244 226 219 244 218 265 224 253 275 31 102 194 175 205 196 202 235 210 196 203 193 185 171 180 181 179 180 182 186 188 189 194 197 198 200 203 197 198 195 191 188 189 177
258 242 238 220 227 211 241 256 236 288 338 108 332 92 292 175 217 216 217 214 204 200 189 177 181 180 184 181 181 186 189 192 195 198 201 206 212 209 205 202 194 191 189 191
232 248 183 213 250 221 250 273 44 44 74 352 155 121 251 181 213 213 228 221 207 203 195 194 181 183 185 182 182 184 187 192 198 200 204 209 215 217 208 196 194 194 193 198
333 350 312 27 344 352 97 61 7 1 10 228 46 74 229 214 217 210 216 215 214 209 204 189 189 183 183 184 183 184 187 187 196 200 205 211 215 220 210 194 197 199 197 202
60 337 16 358 81 274 260 150 152 179 176 260 349 231 261 216 216 210 207 207 205 204 203 198 194 185 184 185 185 186 188 189 193 198 204 210 214 220 219 215 217 208 205 208
31 292 332 30 333 11 323 50 196 124 115 65 264 304 323 27 7 284 213 204 211 214 197 205 195 191 186 185 187 188 189 192 194 200 204 210 216 220 223 215 218 215 210 212
338 353 15 315 27 35 99 281 308 16 180 200 295 320 296 11 352 339 258 205 202 192 195 190 189 198 190 191 191 192 192 192 196 199 204 209 216 220 224 223 217 215 206 214
28 57 303 21 44 323 353 23 343 164 128 159 157 298 56 33 17 346 314 217 188 178 177 179 182 199 199 187 193 197 202 198 194 197 203 207 214 220 223 227 225 219 218 223
328 123 331 262 290 356 100 70 41 44 314 26 140 92 345 39 29 10 349 71 196 183 149 153 146 158 208 191 186 190 197 203 207 199 199 207 214 217 222 228 227 227 223 221
339 14 6 348 358 17 25 19 6 258 266 55 98 262 38 55 46 26 29 40 48 47 32 20 2 299 211 218 165 184 194 198 204 208 201 202 210 213 218 226 229 229 225 223
75 73 121 164 237 271 321 339 360 45 12 330 263 333 8 50 64 59 38 31 41 37 28 19 0 317 36 326 314 225 168 200 203 205 207 203 205 211 215 221 227 226 228 231
94 122 105 238 302 316 317 325 342 345 312 341 305 325 59 59 74 66 75 51 40 42 35 18 13 5 7 354 283 283 256 220 206 204 206 209 207 211 214 215 222 229 227 230
13 176 103 356 342 339 325 312 308 330 4 336 324 166 351 340 79 65 61 62 44 30 26 17 11 0 5 341 352 6 254 242 212 202 211 211 207 206 209 214 215 224 229 229
122 121 81 299 332 333 24 26 3 51 44 346 41 5 347 31 45 46 47 53 44 27 19 359 2 355 16 353 358 356 35 121 172 205 218 213 211 208 208 211 214 217 222 227
134 98 112 191 13 311 243 2 60 73 46 34 14 10 6 6 65 55 38 40 39 32 349 13 2 356 2 0 7 354 272 81 68 11 269 248 221 211 211 207 211 215 218 221
45 113 108 148 198 287 2 21 354 72 0 2 348 348 6 340 246 21 21 24 21 3 337 356 11 359 359 3 358 357 4 260 269 312 310 311 257 221 208 207 211 213 212 216
38 69 126 143 168 233 11 315 326 263 229 2 355 4 359 3 35 312 349 1 358 355 0 357 7 5 1 7 360 351 359 14 12 307 303 293 306 232 212 210 209 211 212 215
352 357 152 246 235 230 318 320 302 169 251 322 328 339 343 344 309 298 323 340 337 339 8 10 350 3 357 3 6 350 345 354 338 332 323 285 297 277 223 214 210 208 211 214
203 130 229 4 275 256 336 21 67 315 297 323 333 330 322 319 319 319 322 328 330 332 347 358 351 352 349 355 354 348 340 346 338 329 328 269 272 271 222 215 210 208 208 211
218 180 187 174 220 130 231 158 246 305 301 301 305 299 293 298 297 313 317 320 316 321 322 334 341 338 341 339 348 346 338 341 336 318 314 321 288 262 219 214 206 205 206 208
224 136 200 39 208 177 177 187 204 296 299 301 290 287 291 288 294 299 299 299 308 306 301 320 323 335 312 323 332 334 341 346 335 326 329 338 324 279 218 212 205 203 203 208
195 134 193 251 281 292 176 178 203 267 267 297 301 294 292 290 280 273 279 291 290 297 298 305 309 300 299 319 321 330 343 347 338 333 341 349 349 359 257 214 205 204 207 206
181 189 168 228 209 189 226 232 230 243 276 309 305 300 288 282 283 279 272 273 281 278 284 282 285 291 284 317 315 326 340 340 342 333 343 342 348 355 344 272 214 211 215 216